TimeEDT,TemperatureF,Dew PointF,Humidity,Sea Level PressureIn,VisibilityMPH,Wind Direction,Wind SpeedMPH,Gust SpeedMPH,PrecipitationIn,Events,Conditions,WindDirDegrees,DateUTC
12:53 AM,82.0,75.9,82,30.12,10.0,East,9.2,-,N/A,,Partly Cloudy,100,2013-07-23 04:53:00
1:53 AM,81.0,75.0,82,30.09,10.0,ESE,8.1,-,N/A,,Partly Cloudy,110,2013-07-23 05:53:00
2:53 AM,81.0,75.0,82,30.07,10.0,ESE,9.2,-,N/A,,Scattered Clouds,110,2013-07-23 06:53:00
3:30 AM,80.6,75.2,84,30.08,10.0,ESE,8.1,-,N/A,,Mostly Cloudy,120,2013-07-23 07:30:00
3:40 AM,80.6,75.2,84,30.08,10.0,ESE,9.2,-,N/A,,Scattered Clouds,120,2013-07-23 07:40:00
3:53 AM,81.0,75.0,82,30.07,10.0,ESE,9.2,-,N/A,,Partly Cloudy,120,2013-07-23 07:53:00
4:53 AM,81.0,75.0,82,30.07,10.0,ESE,8.1,-,N/A,,Scattered Clouds,120,2013-07-23 08:53:00
5:54 AM,80.6,73.4,79,30.08,10.0,ESE,8.1,-,N/A,,Partly Cloudy,110,2013-07-23 09:54:00
6:53 AM,81.0,73.9,79,30.07,10.0,SE,6.9,-,N/A,,Partly Cloudy,130,2013-07-23 10:53:00
7:53 AM,82.9,75.0,77,30.08,10.0,SE,9.2,-,N/A,,Partly Cloudy,140,2013-07-23 11:53:00
8:53 AM,84.9,75.0,72,30.09,10.0,ESE,6.9,-,N/A,,Partly Cloudy,110,2013-07-23 12:53:00
9:53 AM,84.9,75.0,72,30.10,10.0,East,5.8,-,N/A,,Partly Cloudy,100,2013-07-23 13:53:00
10:53 AM,86.0,75.0,70,30.09,10.0,East,6.9,-,N/A,,Partly Cloudy,100,2013-07-23 14:53:00
11:53 AM,86.0,75.9,72,30.08,10.0,SE,5.8,-,N/A,,Partly Cloudy,140,2013-07-23 15:53:00
12:53 PM,87.1,77.0,72,30.07,10.0,Variable,4.6,-,N/A,,Partly Cloudy,0,2013-07-23 16:53:00
1:53 PM,88.0,75.0,65,30.06,10.0,ESE,5.8,-,N/A,,Partly Cloudy,110,2013-07-23 17:53:00
2:53 PM,88.0,75.0,65,30.05,10.0,ESE,6.9,-,N/A,,Scattered Clouds,120,2013-07-23 18:53:00
3:53 PM,88.0,75.9,67,30.04,10.0,SSE,8.1,-,N/A,,Scattered Clouds,150,2013-07-23 19:53:00
4:53 PM,87.1,75.0,67,30.03,10.0,Variable,4.6,-,N/A,,Scattered Clouds,0,2013-07-23 20:53:00
5:53 PM,87.1,75.0,67,30.02,10.0,SSE,8.1,-,N/A,,Scattered Clouds,160,2013-07-23 21:53:00
6:53 PM,84.9,75.0,72,30.01,10.0,SE,4.6,-,N/A,,Scattered Clouds,140,2013-07-23 22:53:00
7:53 PM,82.9,73.0,72,30.02,10.0,SSE,4.6,-,N/A,,Scattered Clouds,160,2013-07-23 23:53:00
8:53 PM,82.9,73.0,72,30.02,10.0,SSE,4.6,-,N/A,,Scattered Clouds,150,2013-07-24 00:53:00
9:53 PM,82.0,73.9,76,30.04,10.0,Calm,Calm,-,N/A,,Scattered Clouds,0,2013-07-24 01:53:00
10:53 PM,81.0,73.9,79,30.04,10.0,Calm,Calm,-,N/A,,Clear,0,2013-07-24 02:53:00
11:53 PM,80.1,73.9,81,30.04,10.0,Calm,Calm,-,N/A,,Clear,0,2013-07-24 03:53:00